BAW7NW LOWW-EGLL

Flight info

Callsign BAW7NW
Flight time 1h 58m
Altitude 38000
Route BUWUT DCT DITIS DCT IPDUL DCT OKG DCT VELIS DCT SWALM DCT TIVUN DCT BREDA DCT ABNED L980 LOGAN
Aircraft A319/M-SDE3FGHIRWY/LB1

Departure

Time 2026-05-06 09:20
Airport Vienna International Airport (LOWW)

Arrival

Time 2026-05-06 11:18
Airport London Heathrow Airport (EGLL)
Time Latitude Longitude Altitude Speed Heading
2026-05-06 08:40 48.12123 16.55497 608 ft 0 kts 296°
2026-05-06 09:13 48.12136 16.55457 612 ft 7 kts 284°
2026-05-06 09:13 48.12099 16.55411 613 ft 3 kts 178°
2026-05-06 09:13 48.12022 16.55356 609 ft 18 kts 206°
2026-05-06 09:14 48.11913 16.55354 612 ft 18 kts 107°
2026-05-06 09:14 48.11866 16.55542 613 ft 21 kts 114°
2026-05-06 09:14 48.11795 16.55757 609 ft 25 kts 116°
2026-05-06 09:14 48.11715 16.56006 609 ft 28 kts 115°
2026-05-06 09:15 48.11623 16.56289 617 ft 32 kts 116°
2026-05-06 09:15 48.11521 16.56597 619 ft 24 kts 116°
2026-05-06 09:15 48.11458 16.56786 618 ft 22 kts 115°
2026-05-06 09:15 48.11386 16.57010 609 ft 26 kts 115°
2026-05-06 09:16 48.11305 16.57259 613 ft 21 kts 117°
2026-05-06 09:16 48.11377 16.57375 609 ft 18 kts 26°
2026-05-06 09:16 48.11500 16.57463 609 ft 20 kts 16°
2026-05-06 09:16 48.11644 16.57418 613 ft 22 kts 342°
2026-05-06 09:17 48.11798 16.57350 611 ft 24 kts 345°
2026-05-06 09:17 48.11946 16.57288 617 ft 21 kts 346°
2026-05-06 09:17 48.11992 16.57365 620 ft 8 kts 64°
2026-05-06 09:17 48.12014 16.57467 609 ft 13 kts 82°
2026-05-06 09:18 48.11997 16.57580 612 ft 0 kts 104°
2026-05-06 09:18 48.11995 16.57590 609 ft 3 kts 104°
2026-05-06 09:18 48.11980 16.57679 609 ft 12 kts 104°
2026-05-06 09:18 48.11953 16.57816 613 ft 15 kts 121°
2026-05-06 09:19 48.11923 16.57843 616 ft 0 kts 164°
2026-05-06 09:19 48.11884 16.57859 617 ft 22 kts 165°
2026-05-06 09:19 48.11544 16.58003 617 ft 80 kts 163°
2026-05-06 09:19 48.10824 16.58306 617 ft 133 kts 164°
2026-05-06 09:20 48.09782 16.58741 739 ft 169 kts 162°
2026-05-06 09:20 48.08676 16.59203 1638 ft 155 kts 163°
2026-05-06 09:20 48.07686 16.59623 2525 ft 154 kts 163°
2026-05-06 09:20 48.06969 16.59936 2854 ft 168 kts 163°
2026-05-06 09:21 48.05512 16.61187 3368 ft 200 kts 136°
2026-05-06 09:21 48.04945 16.62351 3865 ft 210 kts 120°
2026-05-06 09:21 48.04553 16.64477 4789 ft 218 kts 96°
2026-05-06 09:21 48.04816 16.66717 5657 ft 229 kts 69°
2026-05-06 09:22 48.05782 16.68631 6532 ft 237 kts 42°
2026-05-06 09:22 48.07618 16.70798 7269 ft 269 kts 37°
2026-05-06 09:22 48.08669 16.71954 7626 ft 285 kts 37°
2026-05-06 09:22 48.10299 16.73720 8350 ft 297 kts 36°
2026-05-06 09:23 48.11998 16.75560 9252 ft 304 kts 36°
2026-05-06 09:23 48.13851 16.77158 10082 ft 311 kts 19°
2026-05-06 09:23 48.16035 16.77773 10474 ft 331 kts 355°
2026-05-06 09:23 48.18277 16.76919 11023 ft 336 kts 328°
2026-05-06 09:24 48.20077 16.74764 11784 ft 331 kts 304°
2026-05-06 09:24 48.21378 16.71915 12647 ft 331 kts 298°
2026-05-06 09:24 48.22634 16.69010 13540 ft 332 kts 298°
2026-05-06 09:24 48.23886 16.66085 14317 ft 334 kts 298°
2026-05-06 09:25 48.25132 16.63167 15039 ft 337 kts 298°
2026-05-06 09:25 48.26407 16.60190 15752 ft 341 kts 298°
2026-05-06 09:25 48.27699 16.57180 16460 ft 344 kts 299°
2026-05-06 09:25 48.29006 16.54141 17173 ft 347 kts 299°
2026-05-06 09:26 48.30322 16.51075 17884 ft 351 kts 299°
2026-05-06 09:26 48.31653 16.47967 18534 ft 354 kts 299°
2026-05-06 09:26 48.32995 16.44830 19151 ft 357 kts 299°
2026-05-06 09:26 48.34325 16.41716 19757 ft 360 kts 299°
2026-05-06 09:27 48.35685 16.38527 20357 ft 364 kts 298°
2026-05-06 09:27 48.37055 16.35304 20976 ft 367 kts 298°
2026-05-06 09:27 48.38437 16.32053 21582 ft 370 kts 298°
2026-05-06 09:27 48.39829 16.28780 22181 ft 374 kts 298°
2026-05-06 09:28 48.41238 16.25472 22777 ft 377 kts 297°
2026-05-06 09:28 48.42655 16.22135 23365 ft 380 kts 297°
2026-05-06 09:28 48.44084 16.18760 23889 ft 383 kts 297°
2026-05-06 09:28 48.45521 16.15361 24383 ft 385 kts 297°
2026-05-06 09:29 48.46952 16.11979 24859 ft 387 kts 297°
2026-05-06 09:29 48.48407 16.08534 25332 ft 390 kts 297°
2026-05-06 09:29 48.49872 16.05059 25811 ft 393 kts 296°
2026-05-06 09:29 48.51347 16.01550 26268 ft 396 kts 296°
2026-05-06 09:30 48.52822 15.98031 26732 ft 398 kts 296°
2026-05-06 09:30 48.54311 15.94482 27198 ft 401 kts 296°
2026-05-06 09:30 48.55791 15.90959 27653 ft 403 kts 296°
2026-05-06 09:30 48.57299 15.87362 28117 ft 406 kts 296°
2026-05-06 09:31 48.58808 15.83749 28576 ft 409 kts 296°
2026-05-06 09:31 48.60329 15.80109 29016 ft 411 kts 296°
2026-05-06 09:31 48.61864 15.76430 29474 ft 414 kts 296°
2026-05-06 09:31 48.63406 15.72727 29913 ft 417 kts 296°
2026-05-06 09:32 48.64956 15.68993 30299 ft 419 kts 296°
2026-05-06 09:32 48.66507 15.65252 30673 ft 421 kts 296°
2026-05-06 09:32 48.68051 15.61528 31047 ft 423 kts 296°
2026-05-06 09:32 48.69615 15.57755 31413 ft 424 kts 296°
2026-05-06 09:33 48.71187 15.53957 31887 ft 424 kts 296°
2026-05-06 09:33 48.72750 15.50174 32438 ft 421 kts 296°
2026-05-06 09:33 48.74298 15.46420 32976 ft 419 kts 295°
2026-05-06 09:33 48.75840 15.42676 33518 ft 417 kts 295°
2026-05-06 09:34 48.77357 15.38998 34022 ft 415 kts 295°
2026-05-06 09:34 48.78881 15.35297 34435 ft 414 kts 295°
2026-05-06 09:34 48.80406 15.31581 34824 ft 414 kts 295°
2026-05-06 09:34 48.81934 15.27844 35185 ft 414 kts 295°
2026-05-06 09:35 48.83446 15.24127 35544 ft 414 kts 295°
2026-05-06 09:35 48.84962 15.20395 35885 ft 415 kts 295°
2026-05-06 09:35 48.86475 15.16661 36223 ft 415 kts 295°
2026-05-06 09:35 48.87989 15.12910 36546 ft 416 kts 295°
2026-05-06 09:36 48.89483 15.09201 36859 ft 416 kts 295°
2026-05-06 09:36 48.90996 15.05435 37183 ft 416 kts 295°
2026-05-06 09:36 48.92507 15.01664 37485 ft 417 kts 295°
2026-05-06 09:36 48.94016 14.97889 37770 ft 418 kts 295°
2026-05-06 09:37 48.95521 14.94115 37851 ft 418 kts 295°
2026-05-06 09:37 48.98536 14.86556 37847 ft 417 kts 295°
2026-05-06 09:38 49.01552 14.78997 37845 ft 417 kts 295°
2026-05-06 09:38 49.04553 14.71480 37847 ft 417 kts 295°
2026-05-06 09:39 49.07579 14.63905 37840 ft 417 kts 295°
2026-05-06 09:39 49.10605 14.56338 37844 ft 417 kts 295°
2026-05-06 09:40 49.13617 14.48804 37846 ft 417 kts 295°
2026-05-06 09:40 49.18175 14.37425 37847 ft 417 kts 295°
2026-05-06 09:41 49.21187 14.29894 37853 ft 418 kts 295°
2026-05-06 09:41 49.24215 14.22302 37853 ft 418 kts 295°
2026-05-06 09:42 49.27236 14.14705 37854 ft 418 kts 295°
2026-05-06 09:42 49.30375 14.07169 37844 ft 421 kts 298°
2026-05-06 09:43 49.33805 13.99833 37836 ft 423 kts 300°
2026-05-06 09:43 49.37278 13.92531 37831 ft 423 kts 300°
2026-05-06 09:44 49.40672 13.85202 37831 ft 423 kts 299°
2026-05-06 09:44 49.44067 13.77761 37833 ft 424 kts 299°
2026-05-06 09:45 49.47493 13.70403 37838 ft 424 kts 300°
2026-05-06 09:45 49.50940 13.63022 37844 ft 425 kts 300°
2026-05-06 09:46 49.54380 13.55614 37843 ft 424 kts 300°
2026-05-06 09:46 49.57786 13.48246 37850 ft 425 kts 300°
2026-05-06 09:47 49.61219 13.40809 37853 ft 425 kts 300°
2026-05-06 09:47 49.64630 13.33398 37848 ft 425 kts 300°
2026-05-06 09:48 49.68051 13.25935 37851 ft 425 kts 300°
2026-05-06 09:48 49.71472 13.18453 37854 ft 425 kts 300°
2026-05-06 09:49 49.74864 13.11015 37849 ft 425 kts 300°
2026-05-06 09:49 49.78280 13.03502 37845 ft 425 kts 300°
2026-05-06 09:50 49.81656 12.96050 37831 ft 425 kts 300°
2026-05-06 09:50 49.85061 12.88532 37830 ft 426 kts 300°
2026-05-06 09:51 49.88204 12.80802 37834 ft 418 kts 288°
2026-05-06 09:51 49.90422 12.72513 37826 ft 418 kts 288°
2026-05-06 09:52 49.92622 12.64136 37823 ft 419 kts 288°
2026-05-06 09:52 49.94814 12.55732 37824 ft 419 kts 287°
2026-05-06 09:53 49.96993 12.47388 37814 ft 419 kts 288°
2026-05-06 09:53 49.99199 12.38999 37809 ft 420 kts 288°
2026-05-06 09:54 50.01396 12.30564 37814 ft 420 kts 287°
2026-05-06 09:54 50.03573 12.22119 37810 ft 420 kts 287°
2026-05-06 09:55 50.05731 12.13708 37818 ft 420 kts 287°
2026-05-06 09:55 50.07901 12.05247 37821 ft 421 kts 287°
2026-05-06 09:56 50.10072 11.96774 37815 ft 421 kts 287°
2026-05-06 09:56 50.12236 11.88282 37817 ft 421 kts 287°
2026-05-06 09:57 50.14378 11.79847 37819 ft 421 kts 287°
2026-05-06 09:57 50.16530 11.71348 37824 ft 421 kts 287°
2026-05-06 09:58 50.18677 11.62825 37819 ft 421 kts 287°
2026-05-06 09:58 50.20798 11.54355 37816 ft 422 kts 287°
2026-05-06 09:59 50.22927 11.45793 37814 ft 422 kts 287°
2026-05-06 09:59 50.25064 11.37224 37811 ft 422 kts 287°
2026-05-06 10:00 50.27180 11.28706 37804 ft 423 kts 286°
2026-05-06 10:00 50.29306 11.20120 37803 ft 423 kts 286°
2026-05-06 10:01 50.31427 11.11507 37807 ft 423 kts 286°
2026-05-06 10:01 50.33528 11.02895 37812 ft 424 kts 286°
2026-05-06 10:02 50.35627 10.94272 37809 ft 424 kts 286°
2026-05-06 10:02 50.37721 10.85674 37800 ft 425 kts 287°
2026-05-06 10:03 50.39832 10.76989 37790 ft 425 kts 286°
2026-05-06 10:03 50.41912 10.68382 37786 ft 424 kts 287°
2026-05-06 10:04 50.43661 10.61123 37782 ft 425 kts 287°
2026-05-06 10:04 50.45731 10.52484 37784 ft 425 kts 287°
2026-05-06 10:05 50.47751 10.43764 37781 ft 425 kts 285°
2026-05-06 10:05 50.49540 10.34924 37787 ft 424 kts 283°
2026-05-06 10:06 50.51245 10.26048 37785 ft 424 kts 283°
2026-05-06 10:06 50.52963 10.17218 37780 ft 425 kts 283°
2026-05-06 10:07 50.54728 10.08332 37780 ft 425 kts 284°
2026-05-06 10:07 50.56487 9.99503 37774 ft 425 kts 283°
2026-05-06 10:08 50.58235 9.90618 37774 ft 425 kts 283°
2026-05-06 10:08 50.59973 9.81711 37774 ft 426 kts 283°
2026-05-06 10:09 50.61705 9.72824 37772 ft 426 kts 283°
2026-05-06 10:09 50.63435 9.63893 37767 ft 426 kts 283°
2026-05-06 10:10 50.65155 9.54962 37769 ft 426 kts 283°
2026-05-06 10:10 50.66878 9.46005 37769 ft 426 kts 283°
2026-05-06 10:11 50.68598 9.37031 37770 ft 427 kts 283°
2026-05-06 10:11 50.70295 9.28102 37760 ft 427 kts 283°
2026-05-06 10:12 50.71991 9.19117 37759 ft 427 kts 282°
2026-05-06 10:12 50.73602 9.10089 37759 ft 426 kts 282°
2026-05-06 10:13 50.75142 9.01092 37761 ft 427 kts 282°
2026-05-06 10:13 50.76704 8.92034 37759 ft 427 kts 282°
2026-05-06 10:14 50.78272 8.82960 37757 ft 427 kts 282°
2026-05-06 10:14 50.79835 8.73885 37759 ft 427 kts 282°
2026-05-06 10:15 50.81374 8.64862 37762 ft 427 kts 282°
2026-05-06 10:15 50.82918 8.55769 37769 ft 428 kts 281°
2026-05-06 10:16 50.84465 8.46644 37773 ft 428 kts 281°
2026-05-06 10:16 50.85985 8.37585 37775 ft 428 kts 281°
2026-05-06 10:17 50.87505 8.28464 37783 ft 428 kts 281°
2026-05-06 10:17 50.89023 8.19335 37782 ft 428 kts 281°
2026-05-06 10:18 50.90538 8.10183 37780 ft 428 kts 281°
2026-05-06 10:18 50.92038 8.01090 37784 ft 429 kts 281°
2026-05-06 10:19 50.93676 7.91988 37784 ft 430 kts 285°
2026-05-06 10:19 50.95686 7.83022 37784 ft 431 kts 287°
2026-05-06 10:20 50.97754 7.74083 37789 ft 431 kts 286°
2026-05-06 10:20 50.99712 7.65225 37788 ft 431 kts 285°
2026-05-06 10:21 51.01627 7.56269 37797 ft 431 kts 285°
2026-05-06 10:21 51.03546 7.47242 37802 ft 431 kts 285°
2026-05-06 10:22 51.05472 7.38204 37807 ft 431 kts 285°
2026-05-06 10:22 51.07389 7.29190 37805 ft 430 kts 285°
2026-05-06 10:23 51.09289 7.20208 37807 ft 430 kts 285°
2026-05-06 10:23 51.11198 7.11175 37813 ft 430 kts 285°
2026-05-06 10:24 51.13098 7.02116 37830 ft 430 kts 285°
2026-05-06 10:24 51.14985 6.93060 37836 ft 430 kts 285°
2026-05-06 10:25 51.16850 6.84063 37843 ft 430 kts 285°
2026-05-06 10:25 51.18728 6.74999 37844 ft 430 kts 285°
2026-05-06 10:26 51.20593 6.65935 37841 ft 430 kts 285°
2026-05-06 10:26 51.22443 6.56899 37841 ft 430 kts 285°
2026-05-06 10:27 51.24302 6.47795 37838 ft 430 kts 285°
2026-05-06 10:27 51.26147 6.38707 37837 ft 430 kts 284°
2026-05-06 10:28 51.27976 6.29652 37840 ft 430 kts 285°
2026-05-06 10:28 51.29814 6.20522 37836 ft 430 kts 284°
2026-05-06 10:29 51.31631 6.11438 37838 ft 431 kts 284°
2026-05-06 10:29 51.33451 6.02306 37845 ft 430 kts 284°
2026-05-06 10:30 51.35266 5.93176 37850 ft 431 kts 285°
2026-05-06 10:30 51.37085 5.84013 37855 ft 431 kts 285°
2026-05-06 10:31 51.38870 5.74915 37856 ft 430 kts 284°
2026-05-06 10:31 51.40658 5.65751 37862 ft 430 kts 284°
2026-05-06 10:32 51.42448 5.56582 37866 ft 431 kts 284°
2026-05-06 10:32 51.44228 5.47408 37870 ft 430 kts 284°
2026-05-06 10:33 51.45985 5.38268 37870 ft 431 kts 284°
2026-05-06 10:33 51.47747 5.29074 37868 ft 430 kts 284°
2026-05-06 10:34 51.49503 5.19911 37870 ft 430 kts 284°
2026-05-06 10:34 51.51255 5.10715 37872 ft 430 kts 284°
2026-05-06 10:35 51.52999 5.01508 37882 ft 430 kts 284°
2026-05-06 10:35 51.54718 4.92368 37879 ft 430 kts 284°
2026-05-06 10:36 51.56427 4.83168 37875 ft 429 kts 284°
2026-05-06 10:36 51.58096 4.73942 37876 ft 429 kts 283°
2026-05-06 10:37 51.59718 4.64763 37876 ft 429 kts 283°
2026-05-06 10:37 51.61350 4.55527 37893 ft 429 kts 283°
2026-05-06 10:38 51.62983 4.46291 37893 ft 429 kts 283°
2026-05-06 10:38 51.64603 4.37093 37896 ft 429 kts 283°
2026-05-06 10:39 51.66222 4.27845 37890 ft 428 kts 283°
2026-05-06 10:39 51.67834 4.18574 37891 ft 428 kts 283°
2026-05-06 10:40 51.69435 4.09369 37888 ft 428 kts 283°
2026-05-06 10:40 51.71037 4.00108 37895 ft 428 kts 283°
2026-05-06 10:41 51.72622 3.90858 37894 ft 427 kts 283°
2026-05-06 10:41 51.74192 3.81602 37899 ft 427 kts 283°
2026-05-06 10:42 51.75750 3.72409 37898 ft 427 kts 283°
2026-05-06 10:42 51.77315 3.63133 37902 ft 427 kts 283°
2026-05-06 10:43 51.78858 3.53872 37908 ft 427 kts 283°
2026-05-06 10:44 51.81160 3.39980 37916 ft 426 kts 283°
2026-05-06 10:44 51.82682 3.30758 37924 ft 426 kts 283°
2026-05-06 10:45 51.84195 3.21477 37932 ft 426 kts 281°
2026-05-06 10:45 51.84590 3.12003 37912 ft 422 kts 263°
2026-05-06 10:45 51.84284 3.07230 37644 ft 431 kts 262°
2026-05-06 10:46 51.83964 3.02400 37373 ft 432 kts 262°
2026-05-06 10:46 51.83648 2.97618 37105 ft 431 kts 262°
2026-05-06 10:46 51.83331 2.92804 36842 ft 429 kts 262°
2026-05-06 10:46 51.83016 2.88006 36576 ft 426 kts 262°
2026-05-06 10:47 51.82703 2.83255 36317 ft 424 kts 262°
2026-05-06 10:47 51.82391 2.78535 36072 ft 419 kts 262°
2026-05-06 10:47 51.82185 2.75439 35831 ft 416 kts 262°
2026-05-06 10:47 51.81870 2.70796 35391 ft 414 kts 262°
2026-05-06 10:48 51.81448 2.64704 34821 ft 410 kts 262°
2026-05-06 10:48 51.81130 2.60136 34374 ft 408 kts 262°
2026-05-06 10:48 51.80814 2.55584 33938 ft 405 kts 262°
2026-05-06 10:48 51.80502 2.51078 33442 ft 402 kts 262°
2026-05-06 10:49 51.80295 2.48110 33153 ft 399 kts 262°
2026-05-06 10:49 51.79983 2.43681 32712 ft 395 kts 262°
2026-05-06 10:49 51.79673 2.39292 32289 ft 390 kts 261°
2026-05-06 10:49 51.79367 2.34951 31862 ft 387 kts 261°
2026-05-06 10:50 51.79061 2.30651 31452 ft 383 kts 261°
2026-05-06 10:50 51.78753 2.26381 31039 ft 380 kts 261°
2026-05-06 10:50 51.78448 2.22145 30646 ft 377 kts 261°
2026-05-06 10:50 51.78170 2.17991 30251 ft 375 kts 261°
2026-05-06 10:51 51.77919 2.13789 29840 ft 373 kts 262°
2026-05-06 10:51 51.77687 2.09653 29455 ft 369 kts 262°
2026-05-06 10:51 51.77458 2.05526 29082 ft 366 kts 262°
2026-05-06 10:51 51.77230 2.01506 28729 ft 362 kts 262°
2026-05-06 10:52 51.76994 1.97465 28380 ft 359 kts 262°
2026-05-06 10:52 51.76756 1.93463 28027 ft 355 kts 262°
2026-05-06 10:52 51.76519 1.89519 27687 ft 351 kts 262°
2026-05-06 10:52 51.76282 1.85610 27320 ft 348 kts 262°
2026-05-06 10:53 51.76049 1.81788 26974 ft 344 kts 262°
2026-05-06 10:53 51.75812 1.77944 26608 ft 341 kts 262°
2026-05-06 10:53 51.75574 1.74150 26244 ft 338 kts 262°
2026-05-06 10:53 51.75334 1.70384 25890 ft 335 kts 262°
2026-05-06 10:54 51.75097 1.66685 25516 ft 333 kts 262°
2026-05-06 10:54 51.74861 1.62962 25143 ft 331 kts 262°
2026-05-06 10:54 51.74630 1.59265 24729 ft 336 kts 262°
2026-05-06 10:54 51.74390 1.55439 24197 ft 346 kts 262°
2026-05-06 10:55 51.74142 1.51554 23670 ft 349 kts 262°
2026-05-06 10:55 51.73890 1.47645 23091 ft 350 kts 262°
2026-05-06 10:55 51.73638 1.43743 22559 ft 349 kts 262°
2026-05-06 10:55 51.73388 1.39902 22042 ft 348 kts 262°
2026-05-06 10:56 51.73135 1.36026 21523 ft 347 kts 262°
2026-05-06 10:56 51.72880 1.32150 21000 ft 347 kts 263°
2026-05-06 10:56 51.72627 1.28288 20485 ft 346 kts 263°
2026-05-06 10:56 51.72375 1.24423 19961 ft 346 kts 263°
2026-05-06 10:57 51.72120 1.20563 19444 ft 346 kts 263°
2026-05-06 10:57 51.71862 1.16699 18924 ft 345 kts 263°
2026-05-06 10:57 51.71604 1.12840 18407 ft 345 kts 263°
2026-05-06 10:57 51.71343 1.08987 17847 ft 345 kts 263°
2026-05-06 10:58 51.71079 1.05144 17319 ft 343 kts 263°
2026-05-06 10:58 51.70813 1.01324 16807 ft 341 kts 263°
2026-05-06 10:58 51.70552 0.97576 16302 ft 339 kts 263°
2026-05-06 10:58 51.70292 0.93798 15801 ft 338 kts 263°
2026-05-06 10:59 51.70035 0.90057 15361 ft 334 kts 263°
2026-05-06 10:59 51.69778 0.86337 14912 ft 332 kts 264°
2026-05-06 10:59 51.69520 0.82647 14469 ft 329 kts 264°
2026-05-06 10:59 51.69263 0.78997 14023 ft 327 kts 264°
2026-05-06 11:00 51.69008 0.75391 13559 ft 326 kts 264°
2026-05-06 11:00 51.68749 0.71731 13101 ft 323 kts 264°
2026-05-06 11:00 51.68500 0.68197 12671 ft 319 kts 264°
2026-05-06 11:00 51.68250 0.64652 12240 ft 317 kts 264°
2026-05-06 11:01 51.67999 0.61141 11815 ft 314 kts 264°
2026-05-06 11:01 51.67744 0.57642 11390 ft 312 kts 264°
2026-05-06 11:01 51.67489 0.54177 10968 ft 310 kts 264°
2026-05-06 11:01 51.67238 0.50743 10552 ft 308 kts 264°
2026-05-06 11:02 51.66988 0.47326 10165 ft 305 kts 264°
2026-05-06 11:02 51.66747 0.43998 10001 ft 295 kts 264°
2026-05-06 11:02 51.66515 0.40768 9628 ft 293 kts 264°
2026-05-06 11:02 51.66280 0.37513 9225 ft 292 kts 264°
2026-05-06 11:03 51.66041 0.34272 8836 ft 290 kts 264°
2026-05-06 11:03 51.65804 0.31055 8444 ft 289 kts 264°
2026-05-06 11:03 51.65567 0.27838 8049 ft 288 kts 264°
2026-05-06 11:03 51.65327 0.24639 7668 ft 287 kts 264°
2026-05-06 11:04 51.65089 0.21495 7487 ft 278 kts 264°
2026-05-06 11:04 51.64857 0.18446 7360 ft 269 kts 264°
2026-05-06 11:04 51.64632 0.15509 7244 ft 260 kts 264°
2026-05-06 11:04 51.64437 0.12696 7121 ft 252 kts 265°
2026-05-06 11:05 51.64277 0.09910 7014 ft 248 kts 266°
2026-05-06 11:05 51.64133 0.07151 7004 ft 247 kts 266°
2026-05-06 11:05 51.63989 0.04392 7006 ft 247 kts 266°
2026-05-06 11:05 51.63842 0.01636 7004 ft 247 kts 265°
2026-05-06 11:06 51.63690 -0.01129 7003 ft 247 kts 265°
2026-05-06 11:06 51.63539 -0.03887 7013 ft 247 kts 266°
2026-05-06 11:06 51.63387 -0.06652 7006 ft 247 kts 265°
2026-05-06 11:06 51.63232 -0.09423 7026 ft 247 kts 265°
2026-05-06 11:07 51.63078 -0.12149 7033 ft 247 kts 265°
2026-05-06 11:07 51.62921 -0.14906 7035 ft 248 kts 265°
2026-05-06 11:07 51.62764 -0.17668 7037 ft 247 kts 265°
2026-05-06 11:07 51.62604 -0.20434 7037 ft 247 kts 265°
2026-05-06 11:08 51.62443 -0.23197 7036 ft 247 kts 265°
2026-05-06 11:08 51.62283 -0.25960 7038 ft 248 kts 265°
2026-05-06 11:08 51.62123 -0.28686 7037 ft 247 kts 265°
2026-05-06 11:08 51.61960 -0.31460 7036 ft 247 kts 265°
2026-05-06 11:09 51.61799 -0.34223 7006 ft 247 kts 265°
2026-05-06 11:09 51.61637 -0.36989 7009 ft 248 kts 266°
2026-05-06 11:09 51.61477 -0.39749 7009 ft 248 kts 266°
2026-05-06 11:09 51.61318 -0.42474 7009 ft 248 kts 265°
2026-05-06 11:10 51.61152 -0.45245 7009 ft 248 kts 265°
2026-05-06 11:10 51.60985 -0.48000 7010 ft 248 kts 265°
2026-05-06 11:10 51.60819 -0.50763 7008 ft 247 kts 265°
2026-05-06 11:10 51.60653 -0.53516 7007 ft 248 kts 266°
2026-05-06 11:11 51.60485 -0.56279 6983 ft 247 kts 266°
2026-05-06 11:11 51.60319 -0.58964 6852 ft 235 kts 266°
2026-05-06 11:11 51.60161 -0.61524 6726 ft 223 kts 266°
2026-05-06 11:11 51.60015 -0.63894 6627 ft 209 kts 266°
2026-05-06 11:12 51.59876 -0.66184 6374 ft 203 kts 267°
2026-05-06 11:12 51.59736 -0.68439 6000 ft 202 kts 265°
2026-05-06 11:12 51.59166 -0.70484 5620 ft 205 kts 229°
2026-05-06 11:12 51.57946 -0.71572 5245 ft 205 kts 192°
2026-05-06 11:13 51.56532 -0.71809 4871 ft 203 kts 181°
2026-05-06 11:13 51.55126 -0.71927 4509 ft 202 kts 181°
2026-05-06 11:13 51.53740 -0.72031 4147 ft 201 kts 181°
2026-05-06 11:13 51.52338 -0.72131 3779 ft 200 kts 181°
2026-05-06 11:14 51.50948 -0.72220 3431 ft 199 kts 180°
2026-05-06 11:14 51.49606 -0.71805 3068 ft 196 kts 154°
2026-05-06 11:14 51.48537 -0.70571 3005 ft 188 kts 129°
2026-05-06 11:14 51.47875 -0.68875 2840 ft 181 kts 108°
2026-05-06 11:15 51.47658 -0.66900 2467 ft 175 kts 86°
2026-05-06 11:15 51.47669 -0.65016 2205 ft 165 kts 85°
2026-05-06 11:15 51.47678 -0.63225 1967 ft 153 kts 85°
2026-05-06 11:15 51.47685 -0.61581 1767 ft 142 kts 85°
2026-05-06 11:16 51.47694 -0.60062 1577 ft 135 kts 84°
2026-05-06 11:16 51.47702 -0.58566 1389 ft 135 kts 84°
2026-05-06 11:16 51.47710 -0.57059 1210 ft 135 kts 84°
2026-05-06 11:16 51.47717 -0.55570 1017 ft 132 kts 84°
2026-05-06 11:17 51.47724 -0.54098 829 ft 133 kts 84°
2026-05-06 11:17 51.47730 -0.52618 588 ft 131 kts 84°
2026-05-06 11:17 51.47714 -0.51168 326 ft 128 kts 80°
2026-05-06 11:17 51.47709 -0.49624 232 ft 154 kts 72°
2026-05-06 11:18 51.47779 -0.47985 89 ft 132 kts 98°
2026-05-06 11:18 51.47763 -0.46788 89 ft 82 kts 88°
2026-05-06 11:18 51.47763 -0.46086 87 ft 52 kts 92°
2026-05-06 11:18 51.47761 -0.45577 85 ft 38 kts 89°
2026-05-06 11:19 51.47759 -0.45278 89 ft 18 kts 98°
2026-05-06 11:19 51.47678 -0.45173 90 ft 11 kts 185°
2026-05-06 11:19 51.47618 -0.45179 87 ft 9 kts 182°
2026-05-06 11:19 51.47545 -0.45178 87 ft 12 kts 180°
2026-05-06 11:20 51.47503 -0.45273 87 ft 13 kts 274°
2026-05-06 11:20 51.47510 -0.45433 87 ft 16 kts 271°
2026-05-06 11:20 51.47511 -0.45631 87 ft 19 kts 271°
2026-05-06 11:20 51.47520 -0.45864 88 ft 22 kts 274°
2026-05-06 11:21 51.47517 -0.46125 87 ft 19 kts 266°
2026-05-06 11:21 51.47456 -0.46170 88 ft 12 kts 144°
2026-05-06 11:21 51.47376 -0.46080 90 ft 16 kts 144°
2026-05-06 11:21 51.47341 -0.45980 89 ft 11 kts 53°
2026-05-06 11:22 51.47352 -0.45958 89 ft 0 kts 54°
2026-05-06 11:22 51.47354 -0.45954 89 ft 2 kts 54°
2026-05-06 11:22 51.47366 -0.45927 89 ft 3 kts 55°